sat.trackr.live / text

‹ back to catalog

STARLINK-34424

NORAD 64295 · 2025-123E

PAYLOAD ACTIVE UNKNOWN

§ Identity

Operator
Country
US
Launch date
2025-06-08
Launch site
AFWTR
Launch vehicle
Mass (kg)
RCS (m²)

Purposes: comms

External: N2YO · Heavens-Above · Gunter

§ Orbital elements

Epoch: 2026-09-20T21:59:11.877216Z

Period
94.14 min
Inclination
70.0003°
Eccentricity
0.0003294
Mean motion
15.29585428 rev/d
Perigee alt
474.8 km
Apogee alt
479.3 km
Semi-major
6,855.2 km
B*
2.9764e-4
RAAN
59.7400°
Arg perigee
266.2982°
Mean anomaly
93.7816°
Rev number
7,214

§ Raw data

STARLINK-344241 64295U 25123E   26263.91610969  .00008439  00000+0  29764-3 0  99932 64295  70.0003  59.7400 0003294 266.2982  93.7816 15.29585428 72143

JSON: /api/v1/satellites/64295 · /tle

For live sub-satellite position, see the globe view (requires WebGL).

§ Visibility from observer

Set your observer location to see the next 7 days of passes ≥ 10°. The values pass through the URL so the page stays shareable.

No JS? Fill the form by hand. The geolocation button needs JavaScript.